Simultaneous Nadir Overpasses (SNOs) Predictions

Prediction of SNOs between GOES-15 and METOP-A Satellite Orbit:

Table of predicted SNOs for the next 14.0 days since TLE Epoch: 8/16/2020
Index Date Time (GOES-15) GOES-15 Lat,Lon METOP-A Lat,Lon Distance(km) Time Diff (sec)
1 08/16/2020 17:06:08 -0.02,-128.01 -0.16,-127.36 74.48 80
2 08/18/2020 05:25:09 0.02,-127.95 -0.88,-131.99 459.80 80
3 08/19/2020 05:01:51 0.03,-127.92 0.26,-127.02 102.96 80
4 08/20/2020 17:20:42 -0.03,-127.86 0.82,-131.60 426.86 80
5 08/21/2020 17:02:44 -0.04,-127.82 -0.32,-126.63 136.04 80
6 08/23/2020 05:21:45 0.03,-127.76 -0.71,-131.27 398.52 80
7 08/24/2020 04:58:26 0.04,-127.72 0.36,-126.28 163.79 80
8 08/25/2020 17:17:18 -0.03,-127.65 0.65,-130.88 367.12 80
9 08/26/2020 16:59:18 -0.04,-127.61 -0.43,-125.90 195.13 80
10 08/28/2020 05:18:20 0.03,-127.54 -0.60,-130.53 340.12 80
11 08/29/2020 04:55:00 0.04,-127.49 0.48,-125.55 221.51 80
